sat.trackr.live / text

‹ back to catalog

STARLINK-3457

NORAD 51754 · 2022-016AS

PAYLOAD ACTIVE UNKNOWN

§ Identity

Operator
Country
US
Launch date
2022-02-21
Launch site
AFETR
Launch vehicle
Mass (kg)
RCS (m²)

Purposes: comms

External: N2YO · Heavens-Above · Gunter

§ Orbital elements

Epoch: 2026-05-24T18:39:43.795872Z

Period
95.44 min
Inclination
53.2165°
Eccentricity
0.0001012
Mean motion
15.08835283 rev/d
Perigee alt
539.1 km
Apogee alt
540.5 km
Semi-major
6,917.9 km
B*
-8.9255e-5
RAAN
327.3081°
Arg perigee
89.4141°
Mean anomaly
270.6967°
Rev number
23,519

§ Raw data

STARLINK-34571 51754U 22016AS  26144.77759023 -.00001708  00000+0 -89255-4 0  99902 51754  53.2165 327.3081 0001012  89.4141 270.6967 15.08835283235191

JSON: /api/v1/satellites/51754 · /tle

For live sub-satellite position, see the globe view (requires WebGL).

§ Visibility from observer

Set your observer location to see the next 7 days of passes ≥ 10°. The values pass through the URL so the page stays shareable.

No JS? Fill the form by hand. The geolocation button needs JavaScript.